Location: *
(50.3194°N, 7.1067°E)
Time: 06:37:43
(UTC+00:00)

CZ-4 R/B - Pass Details

Date: 22 September 2019
Orbit: 532 x 599 km, 97.8° (Epoch: 18 October)

Event Time Altitude Azimuth Distance (km) Brightness Sun altitude
Rises 18:08:51 0° 183° (S) 2,687 4.8 -6.9°
Reaches altitude 10° 18:11:02 10° 191° (S) 1,809 4.0 -7.3°
Maximum altitude 18:14:44 41° 262° (W) 817 2.9 -7.8°
Drops below altitude 10° 18:18:32 10° 333° (NNW) 1,859 4.6 -8.4°
Sets 18:20:49 0° 341° (NNW) 2,772 5.3 -8.8°
